EW8576 Weather Reports


Display with metric or nautical units.
time (UTC)temp
F
wind
direction
speed
MPH
gust
MPH
rain 1hr
in
rain 24hr
in
rain mn
in
humidity
%
barometer
mb
20200713135048 78 85 2.0 6.0 0.00 0.00 0.00 76 1006.7
20200713134547 77 323 1.0 4.0 0.00 0.00 0.00 73 1006.8
20200713134045 77 305 2.0 4.0 0.00 0.00 0.00 75 1006.9
20200713133543 76 304 2.0 5.0 0.00 0.00 0.00 75 1006.8
20200713133037 76 38 3.0 5.0 0.00 0.00 0.00 75 1006.9
20200713132534 76 41 2.0 5.0 0.00 0.00 0.00 79 1006.9
20200713132035 75 172 1.0 4.0 0.00 0.00 0.00 79 1006.9
20200713131533 75 183 2.0 4.0 0.00 0.00 0.00 80 1006.9
20200713131030 74 182 2.0 4.0 0.00 0.00 0.00 80 1006.8
20200713130526 74 5 1.0 4.0 0.00 0.00 0.00 81 1006.8
20200713130025 73 291 1.0 5.0 0.00 0.00 0.00 82 1006.9
20200713125519 73 291 2.0 5.0 0.00 0.00 0.00 84 1006.9
20200713125013 73 265 2.0 5.0 0.00 0.00 0.00 84 1006.9
20200713124511 72 262 2.0 5.0 0.00 0.00 0.00 85 1006.9
20200713124009 72 265 1.0 5.0 0.00 0.00 0.00 86 1006.9
20200713123507 72 265 2.0 4.0 0.00 0.00 0.00 86 1006.9
20200713122953 71 230 3.0 5.0 0.00 0.00 0.00 87 1006.9
20200713122451 71 191 3.0 5.0 0.00 0.00 0.00 89 1007.0
20200713121947 71 281 2.0 5.0 0.00 0.00 0.00 90 1007.0
20200713121441 70 251 2.0 5.0 0.00 0.00 0.00 90 1007.1
20200713120939 70 241 2.0 5.0 0.00 0.00 0.00 90 1007.1
20200713120433 69 238 1.0 5.0 0.00 0.00 0.00 91 1007.0
20200713115930 69 255 1.0 2.0 0.00 0.00 0.00 92 1007.0
20200713115428 69 258 1.0 5.0 0.00 0.00 0.00 92 1007.1
20200713114923 69 252 2.0 5.0 0.00 0.00 0.00 93 1007.0
20200713114412 69 282 2.0 5.0 0.00 0.00 0.00 93 1007.0
20200713113911 69 213 2.0 5.0 0.00 0.00 0.00 94 1007.0
20200713113407 68 244 1.0 4.0 0.00 0.00 0.00 94 1006.9
20200713112904 68 264 1.0 4.0 0.00 0.00 0.00 95 1006.8
20200713112402 68 275 1.0 4.0 0.00 0.00 0.00 95 1006.8
20200713111852 67 246 1.0 4.0 0.00 0.00 0.00 95 1006.7
20200713111350 67 256 1.0 3.0 0.00 0.00 0.00 95 1006.7
20200713110845 67 254 0.0 2.0 0.00 0.00 0.00 95 1006.8
20200713110343 67 261 0.0 1.0 0.00 0.00 0.00 95 1006.7
20200713105834 67 261 0.0 1.0 0.00 0.00 0.00 95 1006.6
20200713105331 67 262 0.0 1.0 0.00 0.00 0.00 95 1006.6
20200713104823 67 262 0.0 0.0 0.00 0.00 0.00 95 1006.7
20200713104312 67 262 0.0 0.0 0.00 0.00 0.00 95 1006.7
20200713103811 66 262 0.0 0.0 0.00 0.00 0.00 95 1006.8
20200713103257 66 262 0.0 1.0 0.00 0.00 0.00 95 1006.6
20200713102747 66 262 0.0 1.0 0.00 0.00 0.00 95 1006.5
20200713102237 66 262 0.0 0.0 0.00 0.00 0.00 95 1006.6
20200713101730 66 262 0.0 0.0 0.00 0.00 0.00 95 1006.6
20200713101228 66 262 0.0 0.0 0.00 0.00 0.00 95 1006.7
20200713100720 66 262 0.0 2.0 0.00 0.00 0.00 95 1006.7
20200713100214 66 262 0.0 2.0 0.00 0.00 0.00 95 1006.5
20200713095705 66 260 0.0 2.0 0.00 0.00 0.00 95 1006.4
20200713095150 66 260 0.0 2.0 0.00 0.00 0.00 95 1006.4
20200713094640 66 257 0.0 1.0 0.00 0.00 0.00 95 1006.4
20200713094130 66 257 0.0 1.0 0.00 0.00 0.00 95 1006.4
20200713093615 66 257 1.0 4.0 0.00 0.00 0.00 95 1006.4
20200713093112 66 257 1.0 4.0 0.00 0.00 0.00 94 1006.3
20200713092602 66 259 0.0 2.0 0.00 0.00 0.00 94 1006.3
20200713092056 66 259 0.0 1.0 0.00 0.00 0.00 94 1006.2
20200713091554 66 259 0.0 0.0 0.00 0.00 0.00 94 1006.2
20200713091036 66 259 0.0 1.0 0.00 0.00 0.00 94 1006.2
20200713090534 66 259 0.0 1.0 0.00 0.00 0.00 94 1006.1
20200713090030 66 259 0.0 0.0 0.00 0.00 0.00 94 1006.1
20200713085525 67 259 0.0 0.0 0.00 0.00 0.00 94 1006.0
20200713085011 67 259 0.0 0.0 0.00 0.00 0.00 94 1006.0
20200713084500 67 259 0.0 0.0 0.00 0.00 0.00 94 1006.0
20200713083947 67 259 0.0 0.0 0.00 0.00 0.00 94 1006.1
20200713083436 67 259 0.0 1.0 0.00 0.00 0.00 94 1006.0
20200713082933 67 259 0.0 1.0 0.00 0.00 0.00 94 1006.0
20200713082430 67 259 0.0 1.0 0.00 0.00 0.00 93 1006.0
20200713081921 67 259 0.0 0.0 0.00 0.00 0.00 93 1005.9
20200713081406 67 259 0.0 0.0 0.00 0.00 0.00 93 1005.9
20200713080856 67 259 0.0 0.0 0.00 0.00 0.00 93 1005.8
20200713080342 67 259 0.0 0.0 0.00 0.00 0.00 93 1005.7
20200713075831 68 259 0.0 0.0 0.00 0.00 0.00 93 1005.7
20200713075320 68 259 0.0 0.0 0.00 0.00 0.00 93 1005.7
20200713074806 68 259 0.0 0.0 0.00 0.00 0.00 93 1005.7
20200713074256 68 259 0.0 1.0 0.00 0.00 0.00 92 1005.7
20200713073743 68 259 0.0 1.0 0.00 0.00 0.00 92 1005.7
20200713073233 68 259 0.0 0.0 0.00 0.00 0.00 92 1005.7
20200713072730 68 259 0.0 0.0 0.00 0.00 0.00 92 1005.7
20200713072232 69 259 0.0 2.0 0.00 0.00 0.00 92 1005.7
20200713071728 69 259 0.0 2.0 0.00 0.00 0.00 92 1006.0
20200713071222 69 259 0.0 2.0 0.00 0.00 0.00 91 1005.9
20200713070716 69 259 0.0 0.0 0.00 0.00 0.00 91 1006.0
20200713070205 69 259 0.0 0.0 0.00 0.00 0.00 91 1005.8
20200713065652 69 259 0.0 2.0 0.00 0.00 0.00 91 1005.9
20200713065134 69 259 0.0 2.0 0.00 0.00 0.00 91 1006.0
20200713064623 69 259 0.0 1.0 0.00 0.00 0.00 90 1005.9
20200713064117 70 259 0.0 1.0 0.00 0.00 0.00 90 1005.9
20200713063536 70 259 0.0 1.0 0.00 0.00 0.00 89 1005.9
20200713063028 70 259 1.0 1.0 0.00 0.00 0.00 89 1006.0
20200713062517 70 259 1.0 1.0 0.00 0.00 0.00 89 1006.0
20200713062006 70 259 1.0 2.0 0.00 0.00 0.00 89 1006.1
20200713061500 70 259 1.0 2.0 0.00 0.00 0.00 89 1006.0
20200713060950 70 259 0.0 2.0 0.00 0.00 0.00 89 1006.0
20200713060436 70 259 0.0 2.0 0.00 0.00 0.00 89 1006.0
20200713055934 70 259 0.0 2.0 0.00 0.00 0.00 88 1006.1
20200713055423 70 259 0.0 2.0 0.00 0.00 0.00 88 1006.2
20200713054920 71 260 0.0 2.0 0.00 0.00 0.00 88 1006.1
20200713054342 71 260 1.0 4.0 0.00 0.00 0.00 88 1006.1
20200713053840 71 260 1.0 4.0 0.00 0.00 0.00 87 1006.2
20200713053326 71 266 1.0 2.0 0.00 0.00 0.00 87 1006.2
20200713052817 71 269 1.0 5.0 0.00 0.00 0.00 86 1006.2
20200713052312 71 276 1.0 5.0 0.00 0.00 0.00 86 1006.2
20200713051806 71 246 1.0 2.0 0.00 0.00 0.00 85 1006.4
20200713051304 71 246 0.0 3.0 0.00 0.00 0.00 86 1006.3
20200713050801 71 244 1.0 5.0 0.00 0.00 0.00 85 1006.3
20200713050252 71 244 1.0 5.0 0.00 0.00 0.00 84 1006.4
20200713045750 71 269 1.0 2.0 0.00 0.00 0.00 84 1006.5
20200713045244 71 269 1.0 4.0 0.00 0.00 0.00 84 1006.6
20200713044742 71 269 1.0 4.0 0.00 0.00 0.00 84 1006.4
20200713044240 72 263 1.0 4.0 0.00 0.00 0.00 83 1006.5
20200713043737 72 250 1.0 5.0 0.00 0.00 0.00 83 1006.4
20200713043234 72 232 2.0 6.0 0.00 0.00 0.00 83 1006.5
20200713042731 72 241 2.0 7.0 0.00 0.00 0.00 82 1006.4
20200713042229 72 274 3.0 9.0 0.00 0.00 0.00 81 1006.3
20200713041728 72 298 2.0 9.0 0.00 0.00 0.00 81 1006.2
20200713041226 72 260 1.0 6.0 0.00 0.00 0.00 81 1006.3
20200713040716 72 265 1.0 6.0 0.00 0.00 0.00 81 1006.3
20200713040215 72 221 1.0 7.0 0.00 0.00 0.00 81 1006.2
20200713035711 72 238 1.0 7.0 0.00 0.00 0.00 81 1006.2
20200713035210 72 246 1.0 4.0 0.00 0.00 0.00 81 1006.2
20200713034659 72 261 2.0 6.0 0.00 0.00 0.00 78 1006.2
20200713034156 72 246 2.0 6.0 0.00 0.00 0.00 79 1006.3
20200713033653 72 246 3.0 7.0 0.00 0.00 0.00 79 1006.3
20200713033152 72 265 3.0 7.0 0.00 0.00 0.00 79 1006.2
20200713032642 72 288 4.0 9.0 0.00 0.00 0.00 79 1006.2
20200713032140 72 248 5.0 9.0 0.00 0.00 0.00 79 1006.3
20200713031638 72 246 5.0 9.0 0.00 0.00 0.00 80 1006.3
20200713031136 72 258 5.0 9.0 0.00 0.00 0.00 79 1006.3
20200713030632 72 265 5.0 9.0 0.00 0.00 0.00 80 1006.5
20200713030132 71 277 4.0 9.0 0.00 0.00 0.00 80 1006.4
20200713025630 71 255 2.0 7.0 0.00 0.00 0.00 82 1006.3
20200713025127 71 252 1.0 5.0 0.00 0.00 0.00 81 1006.1
20200713024616 71 267 0.0 4.0 0.00 0.00 0.00 81 1006.1
20200713024114 71 270 0.0 2.0 0.00 0.00 0.00 81 1006.1
20200713023600 71 270 0.0 1.0 0.00 0.00 0.00 81 1006.0
20200713023034 71 270 0.0 0.0 0.00 0.00 0.00 81 1006.0
20200713022527 72 270 0.0 2.0 0.00 0.00 0.00 80 1005.9
20200713022025 72 270 0.0 2.0 0.00 0.00 0.00 80 1005.9
20200713021506 72 270 0.0 2.0 0.00 0.00 0.00 80 1005.9
20200713020936 72 270 1.0 2.0 0.00 0.00 0.00 80 1005.8
20200713020434 72 270 1.0 2.0 0.00 0.00 0.00 78 1005.7
20200713015927 73 271 0.0 2.0 0.00 0.00 0.00 79 1005.8
20200713015422 73 271 0.0 2.0 0.00 0.00 0.00 78 1005.8
20200713014902 73 271 0.0 2.0 0.00 0.00 0.00 77 1005.7
20200713014400 73 271 0.0 1.0 0.00 0.00 0.00 78 1005.6
20200713013850 73 271 0.0 1.0 0.00 0.00 0.00 76 1005.6
20200713013348 73 271 0.0 1.0 0.00 0.00 0.00 78 1005.7
20200713012846 74 271 0.0 2.0 0.00 0.00 0.00 77 1005.7
20200713012340 74 271 0.0 2.0 0.00 0.00 0.00 77 1005.7
20200713011837 74 271 0.0 2.0 0.00 0.00 0.00 77 1005.5
20200713011332 74 271 1.0 2.0 0.00 0.00 0.00 75 1005.4
20200713010828 75 271 0.0 2.0 0.00 0.00 0.00 76 1005.4
20200713010322 75 292 1.0 4.0 0.00 0.00 0.00 74 1005.3
20200713005819 75 292 2.0 5.0 0.00 0.00 0.00 70 1005.1
20200713005305 75 291 2.0 5.0 0.00 0.00 0.00 70 1005.1
20200713004804 76 213 2.0 7.0 0.00 0.00 0.00 70 1005.0
20200713004301 76 259 4.0 8.0 0.00 0.00 0.00 68 1005.0
20200713003801 76 243 5.0 9.0 0.00 0.00 0.00 68 1005.0
20200713003258 76 265 6.0 11.0 0.00 0.00 0.00 67 1005.0
20200713002757 77 245 6.0 11.0 0.00 0.00 0.00 66 1005.0
20200713002254 77 255 6.0 13.0 0.00 0.00 0.00 65 1004.9
20200713001754 78 306 7.0 13.0 0.00 0.00 0.00 64 1004.9
20200713001251 78 243 7.0 15.0 0.00 0.00 0.00 63 1004.9
20200713000745 79 268 9.0 15.0 0.00 0.00 0.00 61 1004.8
20200713000245 80 276 8.0 18.0 0.00 0.00 0.00 60 1004.7
20200712235741 80 222 7.0 23.0 0.00 0.00 0.00 60 1004.6
20200712235240 80 254 4.0 23.0 0.00 0.00 0.00 62 1004.5
20200712234739 80 211 2.0 7.0 0.00 0.00 0.00 67 1004.2
20200712234238 80 266 2.0 7.0 0.00 0.00 0.00 64 1004.1
20200712233736 80 271 1.0 4.0 0.00 0.00 0.00 68 1004.0
20200712233234 80 272 0.0 2.0 0.00 0.00 0.00 69 1003.9
20200712232731 80 272 0.0 2.0 0.00 0.00 0.00 66 1003.9
20200712232229 80 272 1.0 2.0 0.00 0.00 0.00 66 1003.8
20200712231723 81 272 1.0 2.0 0.00 0.00 0.00 68 1003.7
20200712231211 81 272 0.0 2.0 0.00 0.00 0.00 63 1003.5
20200712230706 82 272 1.0 2.0 0.00 0.00 0.00 64 1003.5
20200712230200 83 272 1.0 3.0 0.00 0.00 0.00 62 1003.5
20200712225658 84 272 1.0 4.0 0.00 0.00 0.00 61 1003.5
20200712225156 84 273 3.0 8.0 0.00 0.00 0.00 55 1003.4
20200712224649 84 275 4.0 8.0 0.00 0.00 0.00 56 1003.4
20200712224144 84 267 3.0 8.0 0.00 0.00 0.00 58 1003.4
20200712223640 85 258 3.0 8.0 0.00 0.00 0.00 57 1003.4
20200712223138 85 280 3.0 6.0 0.00 0.00 0.00 57 1003.5
20200712222632 85 285 3.0 6.0 0.00 0.00 0.00 53 1003.4
20200712222130 85 254 3.0 7.0 0.00 0.00 0.00 56 1003.3
20200712221627 86 267 3.0 7.0 0.00 0.00 0.00 53 1003.3
20200712221125 86 248 4.0 8.0 0.00 0.00 0.00 53 1003.3
20200712220623 86 279 4.0 8.0 0.00 0.00 0.00 53 1003.2
20200712220122 86 290 4.0 7.0 0.00 0.00 0.00 54 1003.2
20200712215620 86 263 5.0 7.0 0.00 0.00 0.00 53 1003.2
20200712215117 86 267 4.0 8.0 0.00 0.00 0.00 51 1003.2
20200712214615 87 235 4.0 8.0 0.00 0.00 0.00 56 1003.2
20200712214114 87 269 3.0 10.0 0.00 0.00 0.00 57 1003.2
20200712213610 87 230 3.0 10.0 0.00 0.00 0.00 55 1003.1
20200712213107 86 227 4.0 9.0 0.00 0.00 0.00 54 1003.1
20200712212605 86 251 4.0 9.0 0.00 0.00 0.00 53 1003.2
20200712212104 86 234 3.0 7.0 0.00 0.00 0.00 60 1003.2
20200712211602 86 263 4.0 8.0 0.00 0.00 0.00 54 1003.2
20200712211059 86 244 5.0 11.0 0.00 0.00 0.00 59 1003.1
20200712210558 85 265 4.0 11.0 0.00 0.00 0.00 55 1003.2
20200712210055 85 237 4.0 6.0 0.00 0.00 0.00 57 1003.3
20200712205555 84 269 4.0 9.0 0.00 0.00 0.00 57 1003.3
20200712205051 85 250 5.0 10.0 0.00 0.00 0.00 56 1003.4
20200712204550 85 266 6.0 11.0 0.00 0.00 0.00 57 1003.5
20200712204048 85 254 7.0 12.0 0.00 0.00 0.00 58 1003.4
20200712203543 85 224 7.0 12.0 0.00 0.00 0.00 55 1003.4
20200712203041 85 233 8.0 13.0 0.00 0.00 0.00 55 1003.4
20200712202540 86 286 7.0 13.0 0.00 0.00 0.00 54 1003.4
20200712202037 86 265 6.0 12.0 0.00 0.00 0.00 55 1003.3
20200712201535 86 250 5.0 12.0 0.00 0.00 0.00 55 1003.4
20200712201033 86 254 6.0 11.0 0.00 0.00 0.00 57 1003.3
20200712200532 86 273 8.0 14.0 0.00 0.00 0.00 53 1003.3
20200712200030 86 278 8.0 14.0 0.00 0.00 0.00 53 1003.2
20200712195526 86 234 7.0 14.0 0.00 0.00 0.00 54 1003.3
20200712195025 86 261 7.0 12.0 0.00 0.00 0.00 57 1003.3
20200712194523 86 262 7.0 13.0 0.00 0.00 0.00 54 1003.4
20200712194022 86 256 6.0 13.0 0.00 0.00 0.00 54 1003.5
20200712193517 86 261 7.0 12.0 0.00 0.00 0.00 57 1003.5
20200712193015 86 243 6.0 11.0 0.00 0.00 0.00 57 1003.5
20200712192513 86 264 7.0 13.0 0.00 0.00 0.00 58 1003.5
20200712192012 86 260 7.0 13.0 0.00 0.00 0.00 55 1003.4
20200712191510 86 318 6.0 12.0 0.00 0.00 0.00 55 1003.4
20200712191007 86 224 6.0 11.0 0.00 0.00 0.00 56 1003.5
20200712190505 86 269 7.0 15.0 0.00 0.00 0.00 55 1003.5
20200712190001 86 267 7.0 15.0 0.00 0.00 0.00 55 1003.5
20200712185500 86 213 5.0 11.0 0.00 0.00 0.00 54 1003.5
20200712184957 85 157 5.0 10.0 0.00 0.00 0.00 60 1003.5
20200712184455 85 285 5.0 10.0 0.00 0.00 0.00 57 1003.5
20200712183953 86 279 5.0 10.0 0.00 0.00 0.00 56 1003.6
20200712183451 85 292 6.0 11.0 0.00 0.00 0.00 58 1003.5
20200712182949 85 250 7.0 11.0 0.00 0.00 0.00 59 1003.6
20200712182448 85 245 5.0 10.0 0.00 0.00 0.00 61 1003.5
20200712181946 85 281 5.0 9.0 0.00 0.00 0.00 63 1003.4
20200712181442 84 215 7.0 12.0 0.00 0.00 0.00 58 1003.5
20200712180940 85 235 6.0 12.0 0.00 0.00 0.00 57 1003.5
20200712180437 85 229 6.0 11.0 0.00 0.00 0.00 60 1003.5
20200712175934 85 248 6.0 11.0 0.00 0.00 0.00 57 1003.5
20200712175432 85 220 6.0 10.0 0.00 0.00 0.00 57 1003.5
20200712174930 85 285 7.0 10.0 0.00 0.00 0.00 55 1003.7
20200712174429 85 272 6.0 11.0 0.00 0.00 0.00 56 1003.7
20200712173927 85 296 6.0 12.0 0.00 0.00 0.00 58 1003.7
20200712173425 85 267 5.0 13.0 0.00 0.00 0.00 57 1003.7
20200712172923 85 271 4.0 13.0 0.00 0.00 0.00 57 1003.7
20200712172421 85 261 5.0 10.0 0.00 0.00 0.00 59 1003.7
20200712171919 84 276 6.0 11.0 0.00 0.00 0.00 59 1003.8
20200712171417 84 316 6.0 11.0 0.00 0.00 0.00 57 1003.8
20200712170915 84 283 6.0 10.0 0.00 0.00 0.00 60 1003.7
20200712170414 84 279 7.0 16.0 0.00 0.00 0.00 57 1003.9
20200712165908 84 295 6.0 16.0 0.00 0.00 0.00 58 1003.9
20200712165407 84 307 5.0 10.0 0.00 0.00 0.00 59 1004.0
20200712164905 84 284 5.0 10.0 0.00 0.00 0.00 62 1003.8
20200712164403 83 239 5.0 9.0 0.00 0.00 0.00 60 1003.9
20200712163901 83 290 5.0 11.0 0.00 0.00 0.00 62 1004.0
20200712163400 83 242 6.0 11.0 0.00 0.00 0.00 59 1004.1
20200712162857 82 269 6.0 11.0 0.00 0.00 0.00 62 1004.1
20200712162355 82 293 5.0 11.0 0.00 0.00 0.00 62 1004.0
20200712161350 82 226 6.0 12.0 0.00 0.00 0.00 62 1004.2
20200712160849 82 251 6.0 12.0 0.00 0.00 0.00 63 1004.2
20200712160347 82 277 5.0 9.0 0.00 0.00 0.00 64 1004.0
20200712155842 81 263 5.0 12.0 0.00 0.00 0.00 65 1004.1
20200712155341 82 304 6.0 12.0 0.00 0.00 0.00 65 1004.1
20200712154839 82 284 5.0 11.0 0.00 0.00 0.00 64 1004.1
20200712154337 81 300 6.0 11.0 0.00 0.00 0.00 64 1004.2
20200712153831 81 323 6.0 11.0 0.00 0.00 0.00 66 1004.3
20200712153330 80 230 5.0 11.0 0.00 0.00 0.00 67 1004.2
20200712152827 80 238 4.0 9.0 0.00 0.00 0.00 68 1004.3
20200712152326 80 223 5.0 10.0 0.00 0.00 0.00 68 1004.3
20200712151823 80 257 6.0 10.0 0.00 0.00 0.00 69 1004.3
20200712151321 80 274 6.0 12.0 0.00 0.00 0.00 69 1004.2
20200712150820 79 267 6.0 12.0 0.00 0.00 0.00 69 1004.1
20200712150315 79 227 5.0 9.0 0.00 0.00 0.00 70 1004.0
20200712145812 79 287 6.0 12.0 0.00 0.00 0.00 69 1004.2
20200712145311 79 256 6.0 12.0 0.00 0.00 0.00 69 1004.2
20200712144809 79 292 6.0 11.0 0.00 0.00 0.00 69 1004.1
20200712144307 79 271 6.0 11.0 0.00 0.00 0.00 69 1004.1
20200712143804 79 269 6.0 13.0 0.00 0.00 0.00 71 1004.3
20200712143303 78 266 6.0 13.0 0.00 0.00 0.00 72 1004.1
20200712142757 78 246 4.0 8.0 0.00 0.00 0.00 76 1004.2
20200712142255 77 285 4.0 8.0 0.00 0.00 0.00 76 1004.2
20200712141749 77 251 4.0 9.0 0.00 0.00 0.00 79 1004.3
20200712141248 76 259 4.0 9.0 0.00 0.00 0.00 77 1004.3
20200712140743 76 266 3.0 10.0 0.00 0.00 0.00 79 1004.2
20200712140240 76 254 3.0 10.0 0.00 0.00 0.00 77 1004.2
20200712135738 76 234 2.0 6.0 0.00 0.00 0.00 79 1004.1
20200712135237 76 265 4.0 11.0 0.00 0.00 0.00 79 1004.1